Showing default

TJS-9, 50574

Orbit data source: Space-Track

TJS-9, 50574 is a payload satellite owned by CASC (CN) in GEO that was launched on Wed, 29 Dec 2021 UTC via a CHANG ZHENG 3B launch vehicle from the Xichang Space Center, China (XSC). Payload-class satellites include a variety of spacecraft equipped with specific instruments for various scientific and technological missions. These include communications satellites like Starlink; space stations such as the ISS; scientific satellites like the Hubble; Earth observation satellites from companies like Planet Labs, Umbra, and HawkEye 360; GPS; miniature CubeSats for education and research; and military/defense satellites.

Not visible in the next 10 days
Identifier
50574, 2021-135A
Orbit
GEO
Country
Flag of CNCN / PRC
Related business
Manufacturer
CAST
Mission
Operational Defense Sigint
Bus & Motor
DFH-4?, DFH-4 LAE
Mass
~4,000 kg wet, ~2,500 kg dry
Launch date (UTC)
2021-12-29 (4 years ago)
Launch vehicle
CHANG ZHENG 3B
Launch site
Xichang Space Center, China (XSC)
Object type
Payload
Rocket body
Debris
Shape & HBR
Box + 2 Pan + 1 Dish, 16.0 m
Radar Cross Section
35.403 m², Large (>1 m²)

Expand to show TLE details & history
Last TLE update: 19 hours ago

TLE from 19 hours ago
0 TJS-9
1 50574U 21135A   26145.61091948 -.00000300  00000-0  00000-0 0  9993
2 50574   0.0764  74.6559 0004306  18.2963 147.3843  1.00268646 16200
Epoch: 2026-05-25T14:39Z
TLE epoch observation values (Epoch: 2026-05-25T14:39:43.443Z)
Latitude
-0.00163°
Longitude
137.23792°
Altitude
35,802.325 km
Speed
3.074 km/s
True Right ascension
16h 01m 27s
True Declination
0° 00' 06"
Sunlit
Object was in daylight at epoch
Visualization orbit readout
Latitude
Unknown
Longitude
Unknown
Altitude
Unknown
Speed
Unknown
Apparent Right ascension
Unknown
Apparent Declination
Unknown
Sunlit
N/A
Visualization observer readout
Local Sidereal Time
19:09:00
Azimuth
Unknown
Elevation
Unknown
Doppler factor
Unknown
Orbital elements
Apogee altitude
35,806.702 km
Perigee altitude
35,770.388 km
Semi-major axis
42,166.682 km
Eccentricity
0.00043
Inclination
0.0764°
RAAN
74.6559°
Arg. of periapsis
18.2963°
True anomaly
147.41088°
Mean anomaly
147.3843°
Eccentric anomaly
147.39759°
Mean motion
0.25066 °/min
Orbital period
1,436.2 mins
BSTAR
0
Loading maneuver chart data...
Computing Atmospheric mass density...
Loading historical data...
Loading historical data...
Loading historical data...
Loading historical data...
Loading historical data...
Loading historical data...
Loading historical data...
Other satellites on launch #135 in the year 2021 (2021-12-29 UTC)

Documentation

Showing up to 5 results
|